Weather History for Shannon, Ireland

Change the Weather History Date:

Wednesday, December 4, 2013

  Actual Average Record
Temperature  
Mean Temperature 41 °F -  
Max Temperature 47 °F 48 °F 59 °F (2007)
Min Temperature 35 °F 38 °F 26 °F (1997)
Degree Days  
Heating Degree Days 24    
Moisture  
Dew Point 38 °F    
Average Humidity 86    
Maximum Humidity 100    
Minimum Humidity 71    
Precipitation  
Precipitation 0.00 in 0.13 in - ()
Sea Level Pressure  
Sea Level Pressure 30.51 in    
Wind  
Wind Speed 5 mph ()    
Max Wind Speed 15 mph    
Max Gust Speed -    
Visibility 6.6 miles    
Events Rain    
Averages and records for this station are not official NWS values.
T = Trace of Precipitation, MM = Missing Value Source: Averaged Metar Reports

Daily Weather History Graph

Daily Weather History Graph

Search for Another Location

Airport:

Trip Planner

Search our weather history database for the weather conditions in past years. The results will help you decide how hot, cold, wet, or windy it might be!

Date:

Astronomy

Dec. 04, 2013 Rise Set
Actual Time 8:29 AM GMT 4:22 PM GMT
Civil Twilight 7:48 AM GMT 5:03 PM GMT
Nautical Twilight 7:04 AM GMT 5:47 PM GMT
Astronomical Twilight 6:22 AM GMT 6:28 PM GMT
Moon 9:39 AM GMT (12/4) 6:23 PM GMT (12/4)
Length of Visible Light 9h 15m
Length of Day
7h 53m
Waxing Crescent, 3% of the Moon is Illuminated
Dec 4
Waxing Crescent
Dec 9
First Quarter
Dec 17
Full
Dec 25
Last Quarter
Jan 1
New

Hourly Weather History & Observations

Time (GMT) Temp. Windchill Dew Point Humidity Pressure Visibility Wind Dir Wind Speed Gust Speed Precip Events Conditions
12:00 AM 43 °F - 41 °F 90% 30.41 in 12 mi NW 6.7 mph - - Rain Light Rain
12:00 AM 42.8 °F 39.3 °F 41.0 °F 93% 30.39 in 6.2 mi NW 5.8 mph - N/A   Mostly Cloudy
12:30 AM 42.8 °F 40.1 °F 41.0 °F 93% 30.39 in 6.2 mi West 4.6 mph - N/A   Mostly Cloudy
1:00 AM 42.8 °F 39.3 °F 37.4 °F 81% 30.42 in 6.2 mi West 5.8 mph - N/A   Mostly Cloudy
1:30 AM 41.0 °F 36.4 °F 39.2 °F 93% 30.42 in 6.2 mi NW 6.9 mph - N/A   Mostly Cloudy
2:00 AM 41.0 °F 38.0 °F 39.2 °F 93% 30.42 in 6.2 mi WNW 4.6 mph - N/A   Mostly Cloudy
2:30 AM 41.0 °F 37.1 °F 37.4 °F 87% 30.42 in 6.2 mi NW 5.8 mph - N/A   Mostly Cloudy
3:00 AM 39.2 °F 35.9 °F 37.4 °F 93% 30.42 in 6.2 mi WNW 4.6 mph - N/A   Scattered Clouds
3:30 AM 37.4 °F 33.8 °F 35.6 °F 93% 30.45 in 6.2 mi West 4.6 mph - N/A   Scattered Clouds
4:00 AM 37.4 °F - 35.6 °F 93% 30.45 in 6.2 mi NNW 2.3 mph - N/A   Partly Cloudy
4:30 AM 37.4 °F 32.1 °F 35.6 °F 93% 30.45 in 6.2 mi NW 6.9 mph - N/A   Partly Cloudy
5:00 AM 37.4 °F 32.1 °F 35.6 °F 93% 30.45 in 6.2 mi NNW 6.9 mph - N/A   Partly Cloudy
5:30 AM 37.4 °F 32.1 °F 35.6 °F 93% 30.45 in 6.2 mi NW 6.9 mph - N/A   Partly Cloudy
6:00 AM 36 °F - 35 °F 93% 30.48 in 12 mi WNW 4.5 mph - -   Scattered Clouds
6:00 AM 35.6 °F 32.8 °F 35.6 °F 100% 30.45 in 6.2 mi WNW 3.5 mph - N/A   Partly Cloudy
6:30 AM 35.6 °F 32.8 °F 35.6 °F 100% 30.48 in 6.2 mi North 3.5 mph - N/A   Partly Cloudy
7:00 AM 37.4 °F 34.9 °F 35.6 °F 93% 30.48 in 6.2 mi NW 3.5 mph - N/A   Partly Cloudy
7:30 AM 35.6 °F - 35.6 °F 100% 30.48 in 6.2 mi North 2.3 mph - N/A   Partly Cloudy
8:00 AM 35.6 °F 32.8 °F 35.6 °F 100% 30.51 in 6.2 mi NNW 3.5 mph - N/A   Partly Cloudy
8:30 AM 35.6 °F - 35.6 °F 100% 30.51 in 6.2 mi WNW 2.3 mph - N/A   Partly Cloudy
9:00 AM 37.4 °F - 37.4 °F 100% 30.54 in 6.2 mi West 2.3 mph - N/A   Partly Cloudy
9:30 AM 35.6 °F - 33.8 °F 93% 30.54 in 6.2 mi Calm Calm - N/A   Partly Cloudy
10:00 AM 35.6 °F - 35.6 °F 100% 30.54 in 6.2 mi Variable 1.2 mph - N/A   Partly Cloudy
10:30 AM 39.2 °F - 37.4 °F 93% 30.57 in 6.2 mi Variable 2.3 mph - N/A   Partly Cloudy
11:00 AM 42.8 °F - 39.2 °F 87% 30.57 in 6.2 mi WNW 2.3 mph - N/A   Partly Cloudy
11:30 AM 44.6 °F 42.2 °F 39.2 °F 81% 30.57 in 6.2 mi SW 4.6 mph - N/A   Scattered Clouds
12:00 PM 45 °F - 40 °F 78% 30.58 in 25 mi NW 6.7 mph - - Rain Light Rain Showers
12:00 PM 44.6 °F 41.4 °F 41.0 °F 87% 30.57 in 6.2 mi NW 5.8 mph - N/A   Partly Cloudy
12:30 PM 46.4 °F 42.9 °F 41.0 °F 81% 30.57 in 6.2 mi WNW 6.9 mph - N/A   Partly Cloudy
1:00 PM 46.4 °F 42.9 °F 41.0 °F 81% 30.57 in 6.2 mi WNW 6.9 mph - N/A   Partly Cloudy
1:30 PM 48.2 °F - 41.0 °F 76% 30.57 in 6.2 mi West 8.1 mph - N/A   Partly Cloudy
2:00 PM 48.2 °F - 39.2 °F 71% 30.57 in 6.2 mi WNW 9.2 mph - N/A   Partly Cloudy
2:30 PM 48.2 °F - 39.2 °F 71% 30.57 in 6.2 mi WNW 11.5 mph - N/A   Partly Cloudy
3:00 PM 46.4 °F 41.9 °F 37.4 °F 71% 30.57 in 6.2 mi West 9.2 mph - N/A   Partly Cloudy
3:30 PM 44.6 °F 40.7 °F 37.4 °F 76% 30.57 in 6.2 mi West 6.9 mph - N/A   Partly Cloudy
4:00 PM 44.6 °F 40.7 °F 37.4 °F 76% 30.57 in 6.2 mi West 6.9 mph - N/A   Partly Cloudy
4:30 PM 42.8 °F 38.6 °F 37.4 °F 81% 30.57 in 6.2 mi WSW 6.9 mph - N/A   Partly Cloudy
5:00 PM 42.8 °F 38.6 °F 37.4 °F 81% 30.57 in 6.2 mi West 6.9 mph - N/A   Partly Cloudy
5:30 PM 42.8 °F 38.0 °F 37.4 °F 81% 30.57 in 6.2 mi West 8.1 mph - N/A   Scattered Clouds
6:00 PM 43 °F - 38 °F 76% 30.58 in 16 mi WSW 6.7 mph - -   Partly Cloudy
6:00 PM 42.8 °F 38.6 °F 37.4 °F 81% 30.57 in 6.2 mi WSW 6.9 mph - N/A   Scattered Clouds
6:30 PM 42.8 °F 38.6 °F 37.4 °F 81% 30.57 in 6.2 mi SSW 6.9 mph - N/A   Partly Cloudy
7:00 PM 41.0 °F 36.4 °F 37.4 °F 87% 30.57 in 6.2 mi SW 6.9 mph - N/A   Partly Cloudy
7:30 PM 42.8 °F 37.5 °F 39.2 °F 87% 30.54 in 6.2 mi SW 9.2 mph - N/A   Scattered Clouds
8:00 PM 44.6 °F 39.2 °F 39.2 °F 81% 30.57 in 6.2 mi SW 10.4 mph - N/A   Mostly Cloudy
8:30 PM 42.8 °F 38.6 °F 37.4 °F 81% 30.54 in 6.2 mi SW 6.9 mph - N/A   Mostly Cloudy
9:00 PM 44.6 °F 41.4 °F 39.2 °F 81% 30.54 in 6.2 mi WSW 5.8 mph - N/A   Mostly Cloudy
9:30 PM 44.6 °F 39.2 °F 39.2 °F 81% 30.54 in 6.2 mi SW 10.4 mph - N/A   Mostly Cloudy
10:00 PM 44.6 °F 40.2 °F 39.2 °F 81% 30.51 in 6.2 mi SSW 8.1 mph - N/A   Mostly Cloudy
10:30 PM 44.6 °F 39.2 °F 37.4 °F 76% 30.51 in 6.2 mi SSW 10.4 mph - N/A   Mostly Cloudy
11:00 PM 44.6 °F 39.7 °F 39.2 °F 81% 30.51 in 6.2 mi SW 9.2 mph - N/A   Mostly Cloudy
11:30 PM 46.4 °F 40.1 °F 37.4 °F 71% 30.54 in 6.2 mi WSW 15.0 mph - N/A   Mostly Cloudy